AO-07 1 07530U 74089B 16161.17264191 -.00000037 00000-0 42481-4 0 9993 2 07530 101.5735 132.1240 0011835 328.8243 158.9315 12.53621512902113 FO-29 1 24278U 96046B 16161.84961690 -.00000031 00000-0 58539-5 0 9996 2 24278 98.5855 88.0254 0349734 221.5032 135.9065 13.53068018978522 RS-22 1 27939U 03042A 16161.75985515 .00000319 00000-0 66100-4 0 9999 2 27939 97.8876 313.7208 0012417 334.6913 25.3686 14.66408551678736 HO-68 1 36122U 09072B 16161.76187659 -.00000059 00000-0 -43517-4 0 9996 2 36122 100.1425 197.9189 0007511 19.4983 340.6419 13.16334230311638 AO-73 1 39444U 13066AE 16161.72942020 .00000531 00000-0 73008-4 0 9992 2 39444 97.6815 215.5195 0059973 46.4796 314.1378 14.81065846136470 EO-79 1 40025U 14033R 16161.79654124 .00000489 00000-0 59267-4 0 9999 2 40025 97.9291 67.2591 0014225 88.4590 271.8255 14.88011010107101 XW-2A 1 40903U 15049E 16161.76194076 .00003885 00000-0 11143-3 0 9997 2 40903 97.4451 176.8223 0016487 155.8133 290.8183 15.36377827 40418 XW-2C 1 40906U 15049H 16161.71680655 .00001362 00000-0 79271-4 0 9993 2 40906 97.4520 168.9549 0017440 65.6992 22.7145 15.13577858 39871 LILACSAT-2 1 40908U 15049K 16161.72266199 .00000635 00000-0 40006-4 0 9995 2 40908 97.4584 168.8648 0018085 59.6471 28.4973 15.12535056 39856 XW-2E 1 40909U 15049L 16161.73991372 .00002650 00000-0 14690-3 0 9993 2 40909 97.4521 169.2216 0016613 68.1645 18.2941 15.14536473 39899 UO-11 1 14781U 84021B 16161.13834318 .00000172 00000-0 27683-4 0 9992 2 14781 97.7499 213.3885 0008142 351.4780 8.6294 14.82750292735061 LO-19 1 20442U 90005G 16161.80296240 .00000016 00000-0 21659-4 0 9996 2 20442 98.5431 96.8477 0012027 162.5843 197.5756 14.32818363378294 AO-27 1 22825U 93061C 16161.52802860 .00000020 00000-0 25155-4 0 9998 2 22825 98.7586 117.7273 0008173 348.3479 11.7512 14.29957471184143 IO-26 1 22826U 93061D 16161.85401893 .00000029 00000-0 28753-4 0 9992 2 22826 98.7529 118.1801 0008494 337.7862 22.2951 14.30282212184350 GO-32 1 25397U 98043D 16160.98767997 .00000008 00000-0 22418-4 0 9995 2 25397 98.5665 106.1425 0001878 44.9501 315.1829 14.23595574930694 NO-44 1 26931U 01043C 16161.85620244 -.00000023 00000-0 23092-4 0 9991 2 26931 67.0514 331.8211 0006790 260.9527 99.0806 14.30410667767091 SO-50 1 27607U 02058C 16160.82667320 .00000060 00000-0 29470-4 0 9997 2 27607 064.5538 186.3882 0069061 218.8453 140.7676 14.75162575723909 CO-55 1 27844U 03031E 16161.00904139 .00000073 00000-0 52787-4 0 9996 2 27844 98.6921 169.4130 0009504 354.3374 5.7694 14.21953292671286 CO-57 1 27848U 03031J 16161.47227232 .00000061 00000-0 47917-4 0 9999 2 27848 98.7018 169.9577 0009575 1.4280 358.6923 14.21579447671249 CO-65 1 32785U 08021C 16161.50067182 .00000404 00000-0 50183-4 0 9999 2 32785 97.6032 196.0367 0012301 328.5501 31.4979 14.87568787439489 PRISM 1 33493U 09002B 16161.77500776 .00001693 00000-0 16067-3 0 9999 2 33493 98.2184 21.5220 0014379 227.1107 132.8905 14.94935024400128 TISAT-1 1 36799U 10035E 16161.73150091 .00000837 00000-0 93184-4 0 9991 2 36799 98.0299 271.8940 0013991 109.0270 251.2464 14.89812964320311 ALMASAT-1 1 38078U 12006B 16160.86809485 .00027642 34831-5 39166-3 0 9990 2 38078 069.4461 042.8363 0383459 114.0458 250.1324 15.02457402228334 DUCHIFAT-1 1 40021U 14033M 16161.69117212 .00000813 00000-0 91624-4 0 9990 2 40021 97.9321 68.2135 0014827 87.2051 273.0863 14.89302304107146 NANOSATCBR1 1 40024U 14033Q 16161.73627122 .00000642 00000-0 74740-4 0 9994 2 40024 97.9295 67.6674 0014080 87.0896 273.1931 14.88712674107125 DTUSAT-2 1 40030U 14033W 16161.50709502 .00000508 00000-0 61901-4 0 9995 2 40030 97.9270 66.4283 0013667 83.7789 276.4984 14.87643307107031 ANTELSAT 1 40034U 14033AA 16161.76006126 .00000511 00000-0 84317-4 0 9999 2 40034 97.9052 50.2498 0060710 50.4274 310.2275 14.73387511106084 MET-2/21 1 22782U 93055A 16161.88444877 .00000032 00000-0 14973-4 0 9991 2 22782 82.5484 319.0256 0023194 38.0525 126.4903 13.83788692150200 NOAA-15 1 25338U 98030A 16161.50301327 .00000076 00000-0 50761-4 0 9993 2 25338 98.7826 165.6372 0010115 202.5000 157.5737 14.25731523939896 NOAA-18 1 28654U 05018A 16161.48208964 -.00000012 00000-0 18752-4 0 9996 2 28654 99.1969 168.2131 0014994 40.2868 319.9411 14.12287723569642 NOAA-19 1 33591U 09005A 16161.50591109 .00000092 00000-0 75191-4 0 9998 2 33591 99.0393 118.2159 0013001 238.8118 121.1779 14.12079251378052 HUBBLE 1 20580U 90037B 16161.83806045 .00000776 00000-0 37404-4 0 9995 2 20580 28.4703 307.2522 0002920 126.4677 26.7711 15.08387237234005 ISS 1 25544U 98067A 16161.81724304 .00010857 00000-0 16859-3 0 9997 2 25544 51.6454 94.7968 0000378 345.1880 46.4493 15.54521268 3841 CO-58 1 28895U 05043F 16161.16318375 .00000240 00000-0 55216-4 0 9992 2 28895 97.8321 335.5038 0015624 241.8524 118.1100 14.63200409565934 CAPE1 1 31130U 07012P 16160.87863290 .00000215 00000-0 56744-4 0 9993 2 31130 98.0321 116.6432 0095232 282.2345 76.8201 14.55933603484923 AAUSAT2 1 32788U 08021F 16161.06816541 .00001183 00000-0 11839-3 0 9993 2 32788 97.6041 204.2080 0010680 301.3776 58.6398 14.93211918439986 DO-64 1 32789U 08021G 16161.14172601 .00001543 00000-0 11839-3 0 9995 2 32789 97.6056 220.5104 0011371 291.7670 68.2345 15.03213015440796 CO-66 1 32791U 08021J 16161.06194025 .00000657 00000-0 74056-4 0 9999 2 32791 97.6040 198.7506 0012449 318.1649 41.8616 14.89767131439580 RS-30 1 32953U 08025A 16161.63773741 .00000010 00000-0 -13620-7 0 9991 2 32953 82.5020 111.3467 0020036 21.2036 338.9871 12.43069901365142 JUGNU 1 37839U 11058B 16161.38594271 .00000319 00000-0 28597-4 0 9997 2 37839 19.9598 190.8683 0019113 34.7713 79.9374 14.12542973240922 SRMSAT 1 37841U 11058D 16161.48387294 .00000314 00000-0 27645-4 0 9994 2 37841 19.9710 224.3026 0011755 308.4028 169.9790 14.10541668240592 AO-71 1 37854U 11061E 16161.84342215 .00002889 00000-0 16657-3 0 9995 2 37854 101.7044 200.7351 0173596 95.5429 266.5608 15.02167987250993 HRBE 1 37855U 11061F 16161.79090109 .00003528 00000-0 19797-3 0 9991 2 37855 101.7161 198.7301 0186554 99.9260 262.3062 15.01075535250886 HORYU-2 1 38340U 12025D 16160.89602629 .00000426 00000-0 71335-4 0 9999 2 38340 098.3544 146.1836 0012713 043.9697 316.2520 14.75028707207845 RS-40 1 38735U 12041C 16161.65637373 .00000040 00000-0 21992-3 0 9999 2 38735 82.4761 196.4625 0018161 117.9022 242.3901 12.42572989175438 BEESAT-3 1 39134U 13015E 16161.00119947 .00002544 00000-0 14194-3 0 9993 2 39134 64.8717 349.2614 0008925 276.2810 83.7299 15.15941293172877 BEESAT-2 1 39136U 13015G 16160.93038076 .00001806 00000-0 11047-3 0 9993 2 39136 064.8722 355.4284 0007940 281.6914 078.3319 15.13611608172367 ZACUBE-1 1 39417U 13066B 16161.10006752 .00000444 00000-0 63012-4 0 9994 2 39417 97.6804 214.3177 0060842 50.3448 310.3110 14.80397038137574 TRITON-1 1 39427U 13066M 16161.04203349 .00000417 00000-0 74865-4 0 9997 2 39427 97.6676 194.8633 0116347 103.2687 258.1526 14.67188416136321 GOMX-1 1 39430U 13066Q 16161.70902739 .00000425 00000-0 86164-4 0 9997 2 39430 97.6695 183.2243 0153405 138.6925 222.5987 14.58594596135637 LO-74 1 39440U 13066AA 16161.07925098 .00000443 00000-0 69209-4 0 9992 2 39440 97.6741 206.5726 0082625 70.3819 290.6286 14.75158424137088 SPROUT 1 39770U 14029E 16161.07928480 .00001127 00000-0 13707-3 0 9997 2 39770 97.8719 258.3998 0010943 107.9676 252.2718 14.85382244110736 EO-80 1 40032U 14033Y 16161.80190805 .00000507 00000-0 61955-4 0 9998 2 40032 97.9277 66.7324 0013612 83.1389 277.1376 14.87577175107075 VELOX-1 1 40057U 14034E 16161.67824610 .00000613 00000-0 95164-4 0 9996 2 40057 98.1946 250.3657 0011293 164.6933 195.4629 14.76707502104775 DAURIA DX 1 1 40071U 14037C 16161.70677329 .00000278 00000-0 43410-4 0 9996 2 40071 98.3310 252.3250 0008736 161.1415 199.0132 14.80818551103842 UKUBE-1 1 40074U 14037F 16161.72205238 .00000652 00000-0 87177-4 0 9991 2 40074 98.3356 254.4434 0004865 156.5523 203.5921 14.83075430103963 HODOYOSHI-1 1 40299U 14070B 16161.71202666 .00001494 00000-0 69798-4 0 9992 2 40299 97.4305 243.6885 0012719 324.2692 194.4594 15.21312734 88290 CHUBUSAT-1 1 40300U 14070C 16161.71700904 .00001544 00000-0 74949-4 0 9993 2 40300 97.4257 241.9444 0020397 328.6283 182.6281 15.19820422 88192 QSAT-EOS 1 40301U 14070D 16161.73274655 .00003276 00000-0 14909-3 0 9998 2 40301 97.4200 241.2858 0028233 326.7959 131.9390 15.21074833 88175 FIREBIRD FU3 1 40377U 15003B 16161.72583055 .00004839 00000-0 21989-3 0 9996 2 40377 99.0853 267.1331 0144889 154.1671 206.6884 15.12455706 74651 FIREBIRD FU4 1 40378U 15003C 16161.25916734 .00005080 00000-0 23033-3 0 9990 2 40378 99.0856 266.5920 0145129 155.6468 205.1707 15.12461391 74587 GRIFEX 1 40379U 15003D 16161.78187366 .00004226 00000-0 20028-3 0 9992 2 40379 99.0864 266.3924 0148979 157.4449 203.3416 15.10714268 74617 NO-84 1 40654U 15025D 16161.22884362 .00019085 00000-0 39981-3 0 01394 2 40654 054.9952 093.6621 0210969 053.9968 308.0249 15.25209845022820 NO-83 1 40655U 15025E 16161.23217614 .00025664 00000-0 49217-3 0 01557 2 40655 054.9850 087.5678 0193855 056.4006 305.4973 15.30033824022886 DEORBITSAIL 1 40719U 15032E 16161.76218240 .00000666 00000-0 10528-3 0 9994 2 40719 98.0181 53.4592 0015160 261.0046 98.9447 14.75540591 49397 NUDT-PHONESAT 1 40900U 15049B 16161.72530000 .00004254 00000-0 21910-3 0 9995 2 40900 97.4434 169.5823 0017000 82.7281 5.2739 15.16809771 39942 XW-2D 1 40907U 15049J 16161.79062589 .00001434 00000-0 83180-4 0 9996 2 40907 97.4484 168.9073 0016882 63.4849 59.2434 15.13618367 39887 XW-2F 1 40910U 15049M 16161.75369638 .00002804 00000-0 15717-3 0 9993 2 40910 97.4517 169.0486 0017842 63.1451 22.1980 15.14071579 39773 XW-2B 1 40911U 15049N 16161.71758830 .00001419 00000-0 82420-4 0 9993 2 40911 97.4531 169.0036 0016766 64.3279 23.8716 15.13601865 39777 DCBB 1 40912U 15049P 16161.76446235 .00002835 00000-0 15048-3 0 9996 2 40912 97.4514 169.8066 0018179 59.4543 27.1501 15.16009037 39831 TW-1C 1 40926U 15051B 16161.83837162 .00010289 00000-0 29094-3 0 9993 2 40926 97.2742 198.8346 0016112 78.0545 8.0112 15.36380764 39639 TW-1A 1 40928U 15051D 16161.77024425 .00004851 00000-0 15296-3 0 9995 2 40928 97.2696 197.9781 0015998 92.9464 357.6550 15.33226169 39586 IO-86 1 40931U 15052B 16160.63533909 .00000732 00000-0 13001-4 0 9993 2 40931 6.0021 16.0918 0013695 357.9195 2.1120 14.76463076 37668 GomX-3 1 40949U 98067HA 16161.77588346 .00027408 00000-0 15660-3 0 9991 2 40949 51.6319 72.6974 0003796 166.3869 193.7234 15.78659177 38895 LQSat 1 40958U 15057A 16161.70256213 .00000146 00000-0 30606-4 0 9995 2 40958 98.0145 236.6953 0018210 174.0739 186.0690 14.72870123 36286 AO-85 1 40967U 15058D 16159.69838781 .00000804 00000-0 10324-3 0 01567 2 40967 064.7780 274.6068 0204963 208.4360 150.5454 14.75018438021873 ATHENOXAT-1 1 41168U 15077C 16161.84303914 .00003371 00000-0 16172-3 0 9991 2 41168 14.9897 6.3032 0012397 261.6053 207.3397 15.09952795 26640 ChubuSat-2 1 41338U 16012B 16161.53069895 .00000641 00000-0 44204-4 0 9998 2 41338 31.0046 318.4318 0014187 330.6547 29.3290 14.99388685 17006 ChubuSat-3 1 41339U 16012C 16161.71264614 .00000621 00000-0 42374-4 0 9999 2 41339 31.0123 317.0565 0013948 337.6445 22.3580 14.99618467 17009 Horyu-4 1 41340U 16012D 16161.81935490 .00001002 00000-0 71807-4 0 9996 2 41340 31.0068 315.9593 0014559 344.2069 15.8111 15.00023942 17044 OUFTI-1 1 41458U 16025C 16161.48482301 .00004416 00000-0 24977-3 0 9998 2 41458 98.2115 171.5353 0178973 93.2933 268.8788 15.00999528 6628 e-st@r-II 1 41459U 16025D 16161.01786520 .00003844 00000-0 21814-3 0 9999 2 41459 98.2124 171.0418 0178912 94.8578 267.3100 15.00992619 6559 AAUSAT4 1 41460U 16025E 16161.74932027 .00005819 00000-0 32688-3 0 9991 2 41460 98.2105 171.8196 0178473 92.5365 269.6290 15.01133758 6661 MinXSS 1 41474U 98067HU 16161.86347514 .00029672 00000-0 41562-3 0 9990 2 41474 51.6439 94.3301 0003794 76.5949 323.5829 15.56522703 3790 CADRE 1 41475U 98067HV 16161.85932867 .00040146 00000-0 54700-3 0 9998 2 41475 51.6416 94.3028 0004080 108.9912 291.1434 15.57114880 3797 STMSat 1 1 41476U 98067HW 16161.86324053 .00029842 00000-0 41666-3 0 9999 2 41476 51.6432 94.3339 0003558 94.4961 305.6759 15.56607032 3700 NODES 1 1 41477U 98067HX 16161.86592081 .00021747 00000-0 30960-3 0 9999 2 41477 51.6442 94.3505 0003325 86.5358 313.8918 15.56272290 3703 NODES 2 1 41478U 98067HY 16161.80243698 .00022327 00000-0 31796-3 0 9994 2 41478 51.6437 94.6689 0003083 96.0392 306.5902 15.56246182 3690 NuSat1-LUSEX 1 41557U 16033B 16161.77087632 .00002984 00000-0 12133-3 0 9996 2 41557 97.4981 234.8972 0013709 236.0486 274.8178 15.25271111 1628 NuSat2 1 41558U 16033C 16161.77184690 .00003033 00000-0 12378-3 0 9996 2 41558 97.5002 234.8991 0013160 234.6456 276.1468 15.25130555 1620 /EX